www.pogodaiklimat.ru

АРХИВ ПОГОДЫ в Вашингтоне

Время (UTC), дата Ветер
(напр.,м/с)
 
Видим.   Явления Облачность Т
(С)
Тd
(С)
f
(%)
Тe
(С)
Тes
(С)
Комфортность

P
(гПа)

Po
(гПа)
Тmin
(С)
Tmax
(С)
R
(мм)
SD
(см)
22:52 15.09 В  16 км  слабый дождь, дымка  10/10 м
[верхняя средняя] 
+24.4  +20.6  79  +30  +30  очень
душно 
1021.0  1020.4  +24.4  +28.3  0.3   
23:52 15.09 В  16 км  слабый дождь  10/10 м
[верхняя средняя] 
+24.0  +20.0  78  +29  +29  душно  1021.6  1021.1  +21.1  +25.0  0.3   
00:52 16.09 В  16 км    10/10 м
[верхняя средняя] 
+23.0  +20.0  83  +30  +30  очень
душно 
1021.6  1021.1  +21.1  +25.0  0.3   
01:52 16.09 СВ  16 км  слабая морось, дымка  10/10 м
[верхняя средняя] 
+23.3  +19.4  79  +30  +30  очень
душно 
1021.7  1021.1  +21.1  +25.0  0.3   
02:52 16.09 СВ  16 км  слабая морось, дымка  10/10 м
[верхняя средняя] 
+22.0  +19.0  83  +27  +27  душно  1021.6  1021.1  +21.1  +25.0  0.3   
03:52 16.09 штиль  16 км  слабый дождь, дымка  10/10 м
[верхняя средняя] 
+22.2  +18.9  82  +28  +28  душно  1021.5  1021.1  +21.1  +25.0  0.3   
04:52 16.09 СВ  16 км  слабый дождь, дымка  10/10 м
[верхняя средняя] 
+21.1  +18.9  87  +25  +25  комфорт  1021.1  1020.7  +21.1  +25.0  0.3   
05:52 16.09 СВ  16 км  слабый дождь, дымка  10/10 м
[верхняя средняя] 
+21.0  +18.0  83  +25  +25  комфорт  1021.1  1020.7  +20.6  +21.1  0.3   
06:52 16.09 СВ  16 км  слабый дождь  10/10 м
[верхняя средняя] 
+21.0  +18.0  83  +25  +25  комфорт  1021.2  1020.7  +20.6  +21.1  0.3   
07:15 16.09 СВ  16 км  слабый дождь  10/10 м
[верхняя средняя] 
+21.0  +18.0  83  +26  +26  душно  1021.3  1020.7  +20.6  +21.1  0.3   
08:44 16.09 СВ  16 км  слабый дождь  10/10 м
[верхняя средняя] 
+21.0  +18.0  83  +25  +25  комфорт  1021.5  1021.1  +20.6  +21.1  0.3   
09:52 16.09 СВ  16 км    10/10 м
[верхняя средняя] 
+21.0  +19.0  88  +26  +26  душно  1021.7  1021.1  +20.6  +21.1  0.3   
10:32 16.09 СВ  10 км    10/10 м
[верхняя средняя] 
+21.0  +19.0  88  +26  +26  душно  1022.1  1021.7  +20.6  +21.1  0.3   
11:30 16.09 СВ  6 км  слабый дождь  10/10 м
[верхняя средняя] 
+22.0  +20.0  88  +28  +28  душно  1022.2  1021.4  +21.1  +26.1  0.3   
12:17 16.09 СВ  16 км    10/10 м
[верхняя средняя] 
+22.0  +21.0  94  +28  +28  душно  1022.6  1021.7  +21.1  +26.1  0.3   
13:34 16.09 СВ  16 км  слабый дождь, дымка  10/10 м
[верхняя средняя] 
+24.0  +21.0  83  +30  +30  очень
душно 
1023.0  1022.4  +21.1  +26.1  0.3   
14:48 16.09 СВ  16 км  слабый дождь, дымка  10/10 м
[верхняя средняя] 
+24.0  +20.0  78  +29  +29  душно  1022.9  1022.4  +21.1  +26.1  0.3   
15:52 16.09 СВ  16 км    10/10 м
[верхняя средняя] 
+26.0  +20.0  70  +32  +32  очень
душно 
1022.4  1021.7  +21.1  +26.1  0.3   
16:52 16.09 СВ  16 км  слабая морось, дымка  10/10 м
[верхняя средняя] 
+26.1  +20.6  72  +33  +33  очень
душно 
1022.1  1021.4  +21.1  +26.1  0.3   
17:31 16.09 СВ  16 км  слабый дождь, дымка  10/10 м
[верхняя средняя] 
+27.0  +21.0  70  +34  +34  очень
душно 
1021.3  1021.1  +25.0  +28.3  0.3   
18:52 16.09 В  16 км  слабый дождь, дымка  10/10 м
[верхняя средняя] 
+28.0  +21.0  66  +35  +35  очень
душно 
1020.8  1020.4  +25.0  +28.3  0.3   
19:52 16.09 В  16 км  слабый дождь, дымка  10/10 м
[верхняя средняя] 
+27.2  +20.0  65  +33  +33  очень
душно 
1020.4  1020.1  +25.0  +28.3  0.3   
20:52 16.09 В  16 км  слабый дождь, дымка  10/10 м
[верхняя средняя] 
+27.0  +19.0  62  +32  +32  очень
душно 
1020.5  1020.1  +25.0  +28.3  0.3   
21:52 16.09 В  16 км  слабый дождь  10/10 м
[верхняя средняя] 
+26.0  +19.0  65  +31  +31  очень
душно 
1020.4  1020.1  +25.0  +28.3  0.3   
22:52 16.09 В  16 км    10/10 м
[верхняя средняя] 
+25.0  +20.0  74  +31  +31  очень
душно 
1020.6  1020.1  +25.0  +28.3  0.3   
23:52 16.09 В  16 км    10/10 м
[верхняя средняя] 
+24.0  +21.0  83  +30  +30  очень
душно 
1021.2  1020.7  +22.8  +25.0  0.3   
00:52 17.09 В  16 км    10/10 м
[верхняя средняя] 
+24.0  +21.0  83  +30  +30  очень
душно 
1021.2  1020.7  +22.8  +25.0  0.3   
01:52 17.09 В  16 км  слабый дождь  10/10 м
[верхняя средняя] 
+23.9  +20.6  82  +30  +30  очень
душно 
1021.1  1020.7  +22.8  +25.0  0.3   
02:52 17.09 В  16 км    10/10 м
[верхняя средняя] 
+23.0  +21.0  89  +31  +31  очень
душно 
1021.0  1020.4  +22.8  +25.0  0.3   
03:52 17.09 В  16 км    10/10 м
[верхняя средняя] 
+22.8  +20.6  87  +30  +30  очень
душно 
1020.9  1020.4  +22.8  +25.0  0.3   
04:52 17.09 СВ  16 км    10/10 м
[верхняя средняя] 
+22.8  +20.6  87  +30  +30  очень
душно 
1020.2  1019.7  +22.8  +25.0  0.3   
05:52 17.09 В  16 км  слабый дождь, дымка  10/10 м
[верхняя средняя] 
0.0  0.0  100  -5  -5    1019.7  1019.0  +22.8  +23.9  0.3   
06:49 17.09 В  16 км    10/10 м
[верхняя средняя] 
0.0  0.0  100  -5  -5    1019.4  1018.7  +22.8  +23.9  0.3   
07:52 17.09 В  16 км    10/10 м
[верхняя средняя] 
0.0  0.0  100  -6  -6    1018.9  1018.4  +22.8  +23.9  0.3   
08:52 17.09 В  16 км    10/10 м
[верхняя средняя] 
0.0  0.0  100  -6  -6    1018.6  1018.0  +22.8  +23.9  0.3   
09:33 17.09 В  16 км    10/10 м
[верхняя средняя] 
0.0  0.0  100  -6  -6    1018.3  1018.0  +22.8  +23.9  0.3   
10:52 17.09 ЮВ  16 км    10/10 м
[верхняя средняя] 
0.0  0.0  100  -6  -6    1018.2  1017.7  +22.8  +23.9  0.3   
11:52 17.09 ЮВ  16 км    10/10 м
[верхняя средняя] 
0.0  0.0  100  -6  -6    1017.7  1017.0  +23.9  +26.7  0.3   
12:52 17.09 В  13 км    10/10 м
[верхняя средняя] 
+25.0  +23.0  89  +33  +33  очень
душно 
1017.5  1017.0  +23.9  +26.7  0.3   
13:52 17.09 ЮВ  16 км    10/10 м
[верхняя средняя] 
+26.1  +22.8  82  +35  +35  очень
душно 
1016.9  1016.3  +23.9  +26.7  0.3   
14:48 17.09 ЮВ  16 км    10/10 м
[верхняя средняя] 
+26.0  +23.0  84  +35  +35  очень
душно 
1016.4  1016.0  +23.9  +26.7  3.6   
15:11 17.09 ЮВ  16 км    10/10 м
[верхняя средняя] 
+27.0  +23.0  79  +36  +36  очень
душно 
1015.8  1015.7  +23.9  +26.7  3.6   
16:20 17.09 ЮВ  3 км    10/10 м
[верхняя средняя] 
+26.0  +23.0  84  +35  +35  очень
душно 
1014.6  1015.0  +23.9  +26.7  3.6   
17:28 17.09 ЮВ  16 км    10/10 м
[верхняя средняя] 
+26.0  +23.0  84  +35  +35  очень
душно 
1014.0  1013.6  +25.0  +26.1  2.5   
18:12 17.09 ЮВ  16 км    10/10 м
[верхняя средняя] 
+26.0  +23.0  84  +35  +35  очень
душно 
1013.2  1013.3  +25.0  +26.1  2.5   
19:40 17.09 ЮВ  5 км    10/10 м
[верхняя средняя] 
+26.0  +23.0  84  +35  +35  очень
душно 
1012.6  1012.3  +25.0  +26.1  2.5   
20:16 17.09 ЮВ  4 км    10/10 м
[верхняя средняя] 
+25.0  +23.0  89  +33  +33  очень
душно 
1012.3  1011.3  +25.0  +26.1  10.7   
21:14 17.09 Ю  8 км    10/10 м
[верхняя средняя] 
+25.0  +23.0  89  +33  +33  очень
душно 
1011.8  1011.6  +25.0  +26.1  10.7   

 

Местоположение метеостанции Reagan National Airport: широта 38.8483 долгота -77.0342 высота над уровнем моря 4 м.

В архиве по умолчанию представлена погода в Вашингтоне за последние 1-2 суток. Обновление информации о фактической погоде в базе происходит ежечасно! Архивные данные за месяц целиком и за предыдущие месяцы Вы можете получить, выбрав интересующий диапазон дат из раскрывающегося списка и нажав кнопку "Ввод!".

Внимание! Архив погоды МЕТАР в базе сайта в настоящее время начинается c 1 января 2013 г. Нет смысла пытаться выбрать более раннюю дату.

Внимание! Время в таблицах - всемирное. Для получения местного времени необходимо прибавить поправку, которая в Вашингтоне равна -5 ч.

Ветер - указаны скорость ветра в м/с и направление, откуда дует ветер: С - северный, СВ - северо-восточный, В - восточный, ЮВ - юго-восточный, Ю - южный, ЮЗ - юго-западный, З - западный, СЗ - северо-западный.
Видимость - горизонтальная дальность видимости в метрах или километрах. При видимости от 1 до 10 км при отсутствии осадков обычно наблюдается дымка, при ухудшении видимости до 1 км и менее - туман. В сухую погоду видимость может ухудшаться дымом, пылью или мглою.
Атмосферные явления - указаны явления, наблюдавшиеся в указанный момент времени.
Облачность - указаны через наклонную черту верхняя и нижняя облачность в баллах и высота нижней границы облаков в метрах. Внимание: облачность, как и прочие метеорологические величины в США измеряются автоматическими метеостанциями. Указанные значения в баллах носят условный характер и показывают процент времени, в течение которого, в среднем, лазерный луч высотомера отражался от облаков обратно.
T - Температура воздуха - температура, измеренная на высоте 2 м над землей.
Td - Температура точки росы - температура, при понижении до которой содержащийся в воздухе водяной пар достигнет насыщения.
f - Относительная влажность воздуха - влажноcть воздуха, измеренная на высоте 2 м над землей.
Te - Эффективная температура - температура, которую ощущает одетый по сезону человек в тени. Характеристика душности погоды. При расчете учитывается влияние влажности воздуха и скорости ветра на теплоощущения человека.
Tes - Эффективная температура на солнце - температура, которую ощущает человек, с поправкой на солнечный нагрев. Характеристика знойности погоды. Зависит от высоты солнца над горизонтом, облачности и скорости ветра. Ночью, в пасмурную погоду, а также при ветре 12 м/с и более поправка равна нулю.
P - Атмосферное давление - приведенное к уровню моря атмосферное давление.
Po - Атмосферное давление - измеренное на уровне метеостанции атмосферное давление.
Tmin - Минимальная температура - минимум температуры воздуха на высоте 2 м над землей.
Tmax - Максимальная температура - максимум температуры воздуха на высоте 2 м над землей.
R - Количество осадков - Количество выпавших осадков за 3 или 6 часов, мм.
SD - Снежный покров - Высота снежного покрова, см.